カタログに戻る

STARLINK-30483

運用中通信VLEO
NORAD 57914·PAYLOAD·🇺🇸 United States

打ち上げ Sep 24, 2023 から Cape Canaveral Space Force Station

Loading…

次のパス (今後24時間)

TLE

最新Source: CelesTrak SupGP

元期: Sep 15, 2026, 02:55 UTC

1 57914C 23147B   26258.12201389 -.00042049  00000+0 -15233-2 0  2586
2 57914  43.0023 189.8186 0001346 277.3677 323.1640 15.27592954    13

AllMySatでSTARLINK-30483をリアルタイム追跡

Download on the App Store